This is the latest recevied weather packets stored in our database for station/object OK1FET-16. If no packets are shown the sender has not sent any weather packets the latest 10 day(s).
| Time | Temp. | Humidity | Pressure | Rain* | Wind** | Luminosity | Snow |
|---|---|---|---|---|---|---|---|
| 1778008918 | 8.89° C | 100% | 1005.5 hPa | - | - | - | - |
| 1778008648 | 8.89° C | 100% | 1005.3 hPa | - | - | - | - |
| 1778008378 | 8.89° C | 100% | 1005.1 hPa | - | - | - | - |
| 1778008113 | 8.89° C | 100% | 1004.9 hPa | - | - | - | - |
| 1778008112 | 8.89° C | 100% | 1004.9 hPa | - | - | - | - |
| 1778007839 | 9.44° C | 100% | 1004.8 hPa | - | - | - | - |
| 1778007303 | 10.56° C | 100% | 1004.7 hPa | - | - | - | - |
| 1778007303 | 10.56° C | 100% | 1004.7 hPa | - | - | - | - |
| 1778007300 | 10.56° C | 100% | 1004.7 hPa | - | - | - | - |
| 1778006764 | 12.22° C | 100% | 1004.7 hPa | - | - | - | - |
| 1778006764 | 12.22° C | 100% | 1004.7 hPa | - | - | - | - |
| 1778006764 | 12.22° C | 100% | 1004.7 hPa | - | - | - | - |
| 1778006220 | 12.22° C | 100% | 1003.3 hPa | - | - | - | - |
| 1778005954 | 12.22° C | 100% | 1003.1 hPa | - | - | - | - |
| 1778005954 | 12.22° C | 100% | 1003.1 hPa | - | - | - | - |
| 1778005950 | 12.22° C | 100% | 1003.1 hPa | - | - | - | - |
| 1778005684 | 12.78° C | 100% | 1003 hPa | - | - | - | - |
| 1778005684 | 12.78° C | 100% | 1003 hPa | - | - | - | - |
| 1778005684 | 12.78° C | 100% | 1003 hPa | - | - | - | - |
| 1778005684 | 12.78° C | 100% | 1003 hPa | - | - | - | - |
| 1778002711 | 13.89° C | 76% | 1003.6 hPa | - | - | - | - |
| 1778002441 | 13.89° C | 76% | 1003.6 hPa | - | - | - | - |
| 1778001365 | 13.89° C | 76% | 1003.5 hPa | - | - | - | - |
| 1778001364 | 13.89° C | 76% | 1003.5 hPa | - | - | - | - |
| 1778001364 | 13.89° C | 76% | 1003.5 hPa | - | - | - | - |
* Rain since midnight (hover to see other rain measurements)
** Current wind speed in m/s (hover to see current wind gust speed)